[[{"header":{"parameterUnit":"m.s-1","parameterCategory":1,"la1":30.2991,"la2":30.254,"lo1":-89.0895,"lo2":-89.0444,"dy":0.0017,"dx":0.0017,"nx":28,"ny":28,"refTime":"2025-08-16T21:00:00:Z","depth":0,"parameterNumber":2,"parameterNumberName":"U-component_of_WINDS"},"data":[0,0,0,0,0,0,0,0,0,0,0,0,0,0,0,0,0,0,0,0,0,0,0,0,0,0,0,0,0,0,0,0,0,0,0,0,0,0,0,0,0,0,0,0,0,0,0,0,0,0,0,0,0,0,0,0,0,0,2.6617,2.6616,0,2.6565,2.6564,2.6564,2.6484,2.6482,2.6481,2.6479,2.6428,2.6428,2.6428,0,0,0,0,0,0,0,0,0,0,0,0,0,2.6648,2.6648,2.6617,2.6616,2.6616,2.6565,2.6564,2.6564,2.6484,2.6482,2.648,2.6479,2.6428,2.6428,2.6428,0,0,0,0,0,0,0,0,0,0,0,0,0,2.662,2.6648,2.6617,2.657,2.6565,2.6565,2.6564,2.6563,2.6484,2.6482,2.648,2.6478,2.6428,2.6428,2.6428,2.647,0,0,2.6427,2.6427,0,0,0,0,0,0,0,0,2.6621,2.6619,2.6577,2.6573,2.6568,2.6529,2.6556,2.6532,2.6485,2.6515,2.6479,2.6477,2.6463,2.646,2.6455,2.6468,2.6466,2.6427,2.6427,2.6427,2.6427,0,0,0,0,0,0,0,2.6623,2.662,2.6596,2.6577,2.6571,2.6552,2.6545,2.6552,2.6502,2.6512,2.6506,2.6501,2.646,2.6455,2.6453,2.6465,2.6427,2.6427,2.6427,2.6427,2.651,2.6512,0,0,0,0,0,0,2.6632,2.6623,2.6598,2.6595,2.659,2.6553,2.6545,2.6543,2.6501,2.6493,2.6503,2.6498,2.6456,2.6453,2.6451,2.6497,2.6427,2.6427,2.6427,2.6508,2.6511,2.6513,0,0,0,0,0,0,2.6633,2.6631,2.66,2.6607,2.6602,2.6554,2.6553,2.6543,2.6538,2.6495,2.6485,2.6507,2.6455,2.6451,2.6466,2.6494,2.6427,2.6427,2.6505,2.6509,2.6512,2.659,0,0,0,0,0,0,2.6634,2.6632,2.6647,2.6608,2.6602,2.6615,2.6554,2.6544,2.6538,2.6531,2.6496,2.6488,2.6453,2.6466,2.6466,2.6493,2.6427,2.6502,2.6507,2.6511,2.6585,2.6596,2.6605,0,0,0,0,0,2.6636,2.6671,2.6648,2.6645,2.6619,2.6617,2.6613,2.6571,2.6541,2.6556,2.6528,2.6489,2.6492,2.6469,2.6467,2.6495,2.65,2.6505,2.651,2.658,2.6594,2.6605,0,0,0,0,0,0,2.6715,2.6665,2.6639,2.6663,2.6645,2.6604,2.6621,2.6587,2.6578,2.6571,2.652,2.6513,2.6534,2.6516,2.6491,2.6534,2.649,2.6495,2.6544,2.6556,2.6566,2.6569,2.6427,0,0,0,0,0,2.6735,2.6737,2.6694,2.6719,2.6712,2.6668,2.6666,2.6635,2.6615,2.6606,2.6579,2.6561,2.6558,2.6557,2.6551,2.6583,2.6574,2.6602,2.6612,2.662,2.6624,2.6639,2.665,2.6529,2.6529,2.6529,0,0,2.6777,2.675,2.6754,2.6734,2.6717,2.672,2.6662,2.6668,2.667,2.6607,2.6619,2.6599,2.6576,2.6599,2.6608,2.6585,2.6656,2.6627,2.6634,2.6633,2.6645,2.6657,2.6667,2.6533,2.6532,2.6532,0,0,2.6853,2.6834,2.6852,2.6836,2.681,2.6781,2.6786,2.675,2.6734,2.6746,2.6699,2.6701,2.6697,2.6681,2.6673,2.6746,2.671,2.6746,2.6798,2.6813,2.6822,2.6831,2.6855,2.6864,2.6751,2.6751,2.6751,0,2.6908,2.691,2.6866,2.6874,2.6867,2.6812,2.6829,2.6816,2.6791,2.6787,2.6762,2.6755,2.6735,2.6753,2.6771,2.6768,2.6771,2.6748,2.6825,2.6832,2.6839,2.6862,2.6871,2.6756,2.6755,2.6755,2.6754,0,2.6978,2.698,2.6998,2.6974,2.6969,2.6982,2.6941,2.6942,2.6913,2.6887,2.6899,2.6874,2.6862,2.6865,2.6837,2.6879,2.6866,2.6834,2.6788,2.6856,2.6876,2.6884,2.6762,2.676,2.6759,2.6758,0,0,2.7099,2.7051,2.7058,2.7046,2.7015,2.7016,2.7028,2.7016,2.7017,2.7002,2.701,2.7008,2.6978,2.6969,2.694,2.6953,2.701,2.6919,2.6918,2.6935,2.7054,2.7076,2.7087,2.6988,2.6989,2.699,2.7055,0,2.7166,2.7182,2.7144,2.7169,2.717,2.7119,2.7129,2.7111,2.7088,2.7087,2.7062,2.706,2.7022,2.7016,2.7028,2.7001,2.7033,2.6996,2.6993,2.6993,2.6997,2.7098,2.7121,2.7183,2.7063,2.7064,2.7065,0,2.7246,2.7235,2.726,2.7227,2.7227,2.7236,2.7222,2.7222,2.7201,2.7183,2.7174,2.714,2.7149,2.7108,2.712,2.7096,2.7093,2.708,2.7082,2.7077,2.7031,2.7093,2.7202,2.721,2.7078,2.7077,2.7076,0,2.7329,2.7321,2.7334,2.7326,2.7289,2.7297,2.7282,2.7259,2.7254,2.7243,2.724,2.723,2.7225,2.7218,2.7182,2.7156,2.7198,2.7154,2.7183,2.7183,2.7191,2.719,2.7298,2.7195,2.7194,2.7194,2.7194,0,2.7407,2.7423,2.7371,2.7379,2.7396,2.7354,2.7372,2.7353,2.7333,2.7337,2.7294,2.7298,2.7251,2.7251,2.7223,2.7237,2.7235,2.7221,2.7212,2.7222,2.7224,2.7217,2.7211,2.7197,2.7196,2.7196,2.7195,0,2.75,2.7466,2.7476,2.7441,2.7433,2.7447,2.7417,2.7423,2.7399,2.7404,2.7403,2.7364,2.7361,2.7326,2.7316,2.7297,2.732,2.7306,2.7327,2.7321,2.735,2.7347,2.7455,2.7466,2.7359,2.736,2.7361,0,2.755,2.7561,2.7528,2.7527,2.7514,2.7513,2.7508,2.7468,2.7465,2.7443,2.7452,2.7446,2.7438,2.7437,2.7408,2.74,2.7383,2.7422,2.7381,2.7391,2.738,2.7379,2.7379,2.7429,2.743,2.7431,2.7432,0,2.7641,2.7624,2.7618,2.7608,2.7603,2.7593,2.758,2.7582,2.7537,2.7536,2.7533,2.7527,2.7517,2.7511,2.7499,2.7484,2.745,2.7446,2.7451,2.746,2.7471,2.7463,2.7347,2.7443,2.7441,2.7441,2.744,2.744,2.7712,2.772,2.7697,2.7692,2.7679,2.7668,2.7672,2.7648,2.7645,2.7632,2.761,2.761,2.759,2.7569,2.7558,2.7557,2.7537,2.7546,2.7548,2.755,2.7555,2.7474,2.7555,2.7555,2.7555,2.7554,2.7554,0,2.7798,2.7782,2.7779,2.7762,2.7759,2.7729,2.7714,2.7713,2.7713,2.7698,2.7691,2.7688,2.7682,2.7654,2.7646,2.7651,2.7636,2.765,2.7647,2.7644,2.7574,2.7569,2.7663,2.7663,2.7662,2.7662,2.7662,2.7662,2.7843,2.7854,2.7834,2.7839,2.7822,2.7821,2.7815,2.7805,2.7792,2.779,2.7785,2.7767,2.7746,2.7737,2.773,2.7722,2.772,2.7739,2.7726,2.766,2.7649,2.7639,2.7634,2.774,2.774,2.7796,2.7796,2.7797]},{"header":{"parameterUnit":"m.s-1","parameterCategory":1,"la1":30.2991,"la2":30.254,"lo1":-89.0895,"lo2":-89.0444,"dy":0.0017,"dx":0.0017,"nx":28,"ny":28,"refTime":"2025-08-16T21:00:00:Z","depth":0,"parameterNumber":3,"parameterNumberName":"V-component_of_WINDS"},"data":[0,0,0,0,0,0,0,0,0,0,0,0,0,0,0,0,0,0,0,0,0,0,0,0,0,0,0,0,0,0,0,0,0,0,0,0,0,0,0,0,0,0,0,0,0,0,0,0,0,0,0,0,0,0,0,0,0,0,2.2497,2.2496,0,2.247,2.2469,2.2469,2.244,2.2439,2.2439,2.2438,2.2409,2.2409,2.2409,0,0,0,0,0,0,0,0,0,0,0,0,0,2.2522,2.2522,2.2497,2.2496,2.2496,2.247,2.2469,2.2469,2.244,2.2439,2.2439,2.2438,2.241,2.2409,2.2409,0,0,0,0,0,0,0,0,0,0,0,0,0,2.2505,2.2521,2.2497,2.2478,2.2476,2.247,2.2469,2.2469,2.244,2.2439,2.2438,2.2438,2.241,2.2409,2.2409,2.2418,0,0,2.2407,2.2407,0,0,0,0,0,0,0,0,2.2506,2.2504,2.2481,2.2479,2.2477,2.2457,2.2468,2.2452,2.244,2.2454,2.2438,2.2438,2.2426,2.2424,2.242,2.2416,2.2415,2.2407,2.2406,2.2406,2.2406,0,0,0,0,0,0,0,2.2507,2.2505,2.2486,2.2481,2.2479,2.2471,2.2468,2.2465,2.2444,2.2452,2.245,2.2447,2.2425,2.2421,2.2419,2.2415,2.2407,2.2406,2.2406,2.2406,2.2417,2.2418,0,0,0,0,0,0,2.2511,2.2506,2.2487,2.2485,2.249,2.2471,2.2468,2.2464,2.2444,2.244,2.2448,2.2446,2.2422,2.242,2.2418,2.2428,2.2406,2.2406,2.2405,2.2417,2.2418,2.2418,0,0,0,0,0,0,2.2512,2.251,2.2488,2.2495,2.2492,2.2471,2.2468,2.2464,2.246,2.244,2.2436,2.2448,2.2421,2.2419,2.2418,2.2426,2.2405,2.2405,2.2416,2.2417,2.2418,2.2446,0,0,0,0,0,0,2.2512,2.251,2.2513,2.2495,2.2491,2.2489,2.2469,2.2464,2.246,2.2457,2.2439,2.2436,2.2421,2.2419,2.2418,2.2425,2.2405,2.2415,2.2416,2.2418,2.2445,2.2448,2.2451,0,0,0,0,0,2.2513,2.2522,2.2514,2.2512,2.2495,2.2489,2.2487,2.247,2.246,2.2464,2.2451,2.2436,2.2426,2.2419,2.2417,2.2425,2.2415,2.2416,2.2418,2.2443,2.2448,2.2451,0,0,0,0,0,0,2.2541,2.2519,2.251,2.2513,2.2503,2.2484,2.2488,2.2475,2.2468,2.2466,2.2445,2.2441,2.2443,2.2434,2.2427,2.2433,2.2418,2.2419,2.2438,2.2442,2.2446,2.2447,2.2404,0,0,0,0,0,2.2548,2.2545,2.2526,2.2531,2.2526,2.2508,2.2505,2.2493,2.2482,2.2477,2.2464,2.2454,2.2448,2.2445,2.2438,2.2444,2.2439,2.2448,2.2451,2.2454,2.2455,2.2457,2.246,2.2423,2.2423,2.2423,0,0,2.2561,2.2549,2.2548,2.2536,2.2527,2.2525,2.2505,2.2503,2.2501,2.2477,2.2475,2.2466,2.2453,2.2455,2.2455,2.2447,2.2464,2.2456,2.2458,2.2457,2.2459,2.2462,2.2465,2.2424,2.2424,2.2424,0,0,2.2584,2.2575,2.2578,2.2569,2.2556,2.2544,2.2545,2.2528,2.2521,2.2519,2.2502,2.2499,2.2489,2.2481,2.2475,2.2496,2.2482,2.2494,2.2511,2.2514,2.2517,2.2519,2.2526,2.2529,2.2495,2.2496,2.2496,0,2.2602,2.2598,2.258,2.258,2.2575,2.2554,2.2557,2.2549,2.2535,2.2532,2.2523,2.2512,2.2501,2.2501,2.2506,2.2503,2.2503,2.2496,2.2518,2.252,2.2522,2.2529,2.2531,2.2497,2.2497,2.2497,2.2497,0,2.2621,2.2618,2.2622,2.2609,2.2604,2.2605,2.2588,2.2586,2.2574,2.2563,2.2562,2.2549,2.254,2.2539,2.2528,2.2538,2.2533,2.2522,2.2506,2.2527,2.2533,2.2536,2.2499,2.2499,2.2498,2.2498,0,0,2.2659,2.2637,2.2639,2.2633,2.2618,2.2615,2.2615,2.2607,2.2605,2.2596,2.2595,2.2588,2.2578,2.2572,2.2559,2.2561,2.2578,2.2549,2.2549,2.2555,2.2589,2.2597,2.26,2.257,2.257,2.257,2.259,0,2.2679,2.2678,2.2663,2.2666,2.2664,2.2644,2.2645,2.2635,2.2625,2.2621,2.2609,2.2605,2.2591,2.2587,2.2589,2.2576,2.2585,2.2575,2.2568,2.2568,2.2572,2.2604,2.2612,2.2631,2.2592,2.2592,2.2593,0,2.2702,2.2695,2.2698,2.2683,2.2681,2.2682,2.2673,2.267,2.2658,2.2651,2.2644,2.2631,2.263,2.2616,2.2614,2.2607,2.2604,2.2598,2.2598,2.2596,2.2581,2.2602,2.2637,2.264,2.2596,2.2596,2.2595,0,2.2729,2.272,2.2721,2.2717,2.2699,2.27,2.2693,2.2681,2.2677,2.267,2.2667,2.2659,2.2655,2.2649,2.2634,2.2625,2.2634,2.2618,2.2627,2.2627,2.2629,2.2629,2.2663,2.2628,2.2628,2.2628,2.2627,0,2.2752,2.2755,2.2734,2.2734,2.2737,2.2719,2.2722,2.2713,2.2703,2.2701,2.2684,2.2683,2.2663,2.2659,2.2647,2.2647,2.2646,2.2639,2.2636,2.264,2.2641,2.2638,2.2636,2.2628,2.2628,2.2628,2.2628,0,2.2783,2.2769,2.2768,2.2752,2.2748,2.2751,2.2737,2.2737,2.2726,2.2724,2.2723,2.2705,2.27,2.2685,2.2675,2.2667,2.2671,2.2665,2.2675,2.2673,2.2682,2.2681,2.2714,2.2718,2.2681,2.2681,2.2682,0,2.2798,2.28,2.2785,2.2783,2.2776,2.2773,2.2769,2.2752,2.2749,2.2737,2.2738,2.2732,2.2726,2.2719,2.2706,2.2699,2.2692,2.2704,2.2691,2.2695,2.2692,2.2692,2.2692,2.2707,2.2707,2.2708,2.2708,0,2.2827,2.282,2.2816,2.2809,2.2805,2.2799,2.2791,2.2791,2.2772,2.2769,2.2764,2.276,2.2751,2.2745,2.2736,2.2728,2.2715,2.2713,2.2714,2.2719,2.2724,2.2721,2.2683,2.2712,2.2711,2.2711,2.2711,2.2711,2.285,2.2851,2.2841,2.2836,2.2829,2.2823,2.2822,2.2812,2.2807,2.2799,2.279,2.2786,2.2775,2.2762,2.2755,2.2752,2.2745,2.2747,2.2747,2.2748,2.275,2.2725,2.275,2.275,2.275,2.275,2.275,0,2.2878,2.2871,2.2867,2.2857,2.2854,2.2843,2.2835,2.2832,2.2829,2.2821,2.2816,2.281,2.2805,2.2791,2.2784,2.2784,2.2778,2.2783,2.2783,2.2781,2.2757,2.2757,2.2788,2.2788,2.2788,2.2788,2.2788,2.2788,2.2892,2.2893,2.2885,2.2882,2.2875,2.2871,2.2867,2.2862,2.2855,2.285,2.2845,2.2837,2.2826,2.2819,2.2813,2.2809,2.2807,2.2814,2.2809,2.2786,2.2783,2.2779,2.2778,2.2814,2.2814,2.2833,2.2833,2.2833]}]]